Location: Waning Moon II Observatory
(30.3730°N, 89.7620°W)
Time: 04:44:33
(UTC-05:00)

Meteor 1-21 - Visible Passes

Search period start: 04 August 2015 00:00
Search period end: 14 August 2015 00:00
Orbit: 844 x 889 km, 81.2° (Epoch: 03 August)

Date Brightness Start Highest point End Pass type
(mag) Time Alt. Az. Time Alt. Az. Time Alt. Az.
04 Aug 6.4 00:38:51 10° N 00:40:40 21° N 00:40:40 21° N visible
05 Aug 6.4 00:31:34 10° N 00:33:22 21° N 00:33:22 21° N visible
06 Aug 6.4 00:24:17 10° N 00:26:05 21° N 00:26:05 21° N visible
07 Aug 6.4 00:17:00 10° N 00:18:49 21° N 00:18:49 21° N visible
08 Aug 6.4 00:09:43 10° N 00:11:33 21° N 00:11:33 21° N visible
09 Aug 6.4 00:02:27 10° N 00:04:19 22° N 00:04:19 22° N visible
09 Aug 6.4 23:55:10 10° N 23:57:05 22° N 23:57:05 22° N visible
10 Aug 6.3 23:47:53 10° N 23:49:52 22° N 23:49:52 22° N visible
11 Aug 6.3 23:40:37 10° N 23:42:40 23° N 23:42:40 23° N visible
12 Aug 6.2 23:33:20 10° N 23:35:29 24° N 23:35:29 24° N visible
13 Aug 6.2 23:26:04 10° N 23:28:19 25° N 23:28:19 25° N visible
